Back to catalog

SL-12 DEB

LostHEO
NORAD 41676·DEBRIS·🇷🇺 Russia

Launched Oct 26, 2007 from Baikonur Cosmodrome

Loading…

Next Passes (next 24 hours)

TLE

StaleSource: Space-Track

Epoch: Jul 9, 2023, 20:26 UTC

1 41676U 07052H   23190.85206208  .00005840  00000-0  12462+0 0  9995
2 41676  66.4302  10.7256 5489644  79.9470  10.3327  4.26281953136730

Track SL-12 DEB in real time with AllMySat

Download on the App Store